Weather in Njuksenica

Russia / Vologda Oblast     60°24′54″N   44°14′41″E
temp.,
°C
wind,
m/s
gust,
m/s
humid.,
%
clouds,
%
prec.,
mm/h
press.,
hPa
HPBL,
m
14 may, fri
fri1400:00+17se247598 0.2 101686
03:00+13sse2896100 1.3 1016200
06:00+15sw389359 1.7 1017582
09:00+18wsw4767100 1.8 10171011
12:00+21sw47435 0.0 10181823
15:00+22wsw4839100 0.0 10172481
18:00+19sw265398 0.0 1016418
21:00+14wsw117197 0.0 101711
15 may, sat
sat1500:00+12ssw117760 0.0 101710
03:00+11sse22868 0.0 101731
06:00+14sse277898 0.0 1016249
09:00+20sse47556 0.1 1014828
12:00+23s4857100 0.3 10121529
15:00+23sw376233 3.4 10111257
18:00+21n2469100 0.0 100897
21:00+13sse2695100 23.3 1008174
16 may, sun
sun1600:00+13s2109570 0.0 1008284
03:00+13s312964 0.0 1008413
06:00+15ssw411932 0.0 1008558
09:00+18ssw597410 0.0 1008994
12:00+21ssw695573 0.1 10081966
15:00+19sw59656 0.9 10091412
18:00+17sw4108385 2.1 1008922
21:00+14wsw269599 5.3 1009176
17 may, mon
mon1700:00+12sw249959 2.2 101093
03:00+12sw269750 2.2 1010157
06:00+13sw249493 0.1 1011259
09:00+16wsw3485100 0.1 1013658
12:00+18w347697 0.4 1013822
15:00+18wsw35785 2.2 1014592
18:00+18wsw13835 1.8 1015171
21:00+13ne11911 1.8 101611
18 may, tue
tue1800:00+12ene2495100 0.0 101774
03:00+10ene249651 0.0 101869
06:00+13e2492100 0.0 1018164
09:00+17e347477 0.0 1018552
12:00+22ese335652 0.0 10171192
15:00+24ese345158 0.0 10161442
18:00+23e37626 0.0 1015386
21:00+18e4137844 0.0 1015341